Time,TemperatureF,DewpointF,PressureIn,WindDirection,WindDirectionDegrees,WindSpeedMPH,WindSpeedGustMPH,Humidity,HourlyPrecipIn,Conditions,Clouds,dailyrainin,SoftwareType,DateUTC
2013-05-09 00:00:00,65.3,62.0,30.00,WSW,240,14.0,15.0,89,0.00,,---,0.00,VWS V14.01,2013-05-09 04:00:00,
2013-05-09 00:01:00,65.4,62.1,30.00,WSW,240,14.0,15.0,89,0.00,,---,0.00,VWS V14.01,2013-05-09 04:01:00,
2013-05-09 00:06:00,65.4,62.1,30.00,WSW,240,16.0,16.0,89,0.00,,---,0.00,VWS V14.01,2013-05-09 04:06:00,
2013-05-09 00:11:00,65.5,62.2,30.00,WSW,242,17.0,17.0,89,0.00,,---,0.00,VWS V14.01,2013-05-09 04:11:00,
2013-05-09 00:16:00,65.5,62.2,30.00,WSW,242,15.0,15.0,89,0.00,,---,0.00,VWS V14.01,2013-05-09 04:16:00,
2013-05-09 00:21:00,65.5,62.2,29.99,WSW,241,14.0,15.0,89,0.00,,---,0.00,VWS V14.01,2013-05-09 04:21:00,
2013-05-09 00:26:00,65.6,62.3,29.99,WSW,242,14.0,16.0,89,0.00,,---,0.00,VWS V14.01,2013-05-09 04:26:00,
2013-05-09 00:31:00,65.6,62.3,29.99,WSW,242,16.0,16.0,89,0.00,,---,0.00,VWS V14.01,2013-05-09 04:31:00,
2013-05-09 00:36:00,65.7,62.4,29.99,WSW,243,14.0,15.0,89,0.00,,---,0.00,VWS V14.01,2013-05-09 04:36:00,
2013-05-09 00:41:00,65.7,62.0,29.99,WSW,241,15.0,16.0,88,0.00,,---,0.00,VWS V14.01,2013-05-09 04:41:00,
2013-05-09 00:46:00,65.7,62.4,29.99,WSW,241,16.0,16.0,89,0.00,,---,0.00,VWS V14.01,2013-05-09 04:46:00,
2013-05-09 00:51:00,65.7,62.0,29.99,WSW,241,16.0,17.0,88,0.00,,---,0.00,VWS V14.01,2013-05-09 04:51:00,
2013-05-09 00:56:00,65.7,62.0,29.99,WSW,244,15.0,18.0,88,0.00,,---,0.00,VWS V14.01,2013-05-09 04:56:00,
2013-05-09 01:01:00,65.8,62.2,29.99,WSW,247,17.0,17.0,88,0.00,,---,0.00,VWS V14.01,2013-05-09 05:01:00,
2013-05-09 01:06:00,65.8,62.2,29.99,WSW,245,14.0,14.0,88,0.00,,---,0.00,VWS V14.01,2013-05-09 05:06:00,
2013-05-09 01:11:00,65.8,62.2,29.99,WSW,243,17.0,17.0,88,0.00,,---,0.00,VWS V14.01,2013-05-09 05:11:00,
2013-05-09 01:16:00,65.8,62.2,29.99,WSW,246,17.0,17.0,88,0.00,,---,0.00,VWS V14.01,2013-05-09 05:16:00,
2013-05-09 01:21:00,65.8,62.2,29.98,WSW,243,16.0,17.0,88,0.00,,---,0.00,VWS V14.01,2013-05-09 05:21:00,
2013-05-09 01:26:00,65.7,62.0,29.98,WSW,240,15.0,16.0,88,0.00,,---,0.00,VWS V14.01,2013-05-09 05:26:00,
2013-05-09 01:31:00,65.7,62.0,29.98,WSW,238,14.0,15.0,88,0.00,,---,0.00,VWS V14.01,2013-05-09 05:31:00,
2013-05-09 01:36:00,65.7,62.0,29.98,WSW,241,14.0,14.0,88,0.00,,---,0.00,VWS V14.01,2013-05-09 05:36:00,
2013-05-09 01:41:00,65.6,62.0,29.98,WSW,240,13.0,14.0,88,0.00,,---,0.00,VWS V14.01,2013-05-09 05:41:00,
2013-05-09 01:46:00,65.6,61.6,29.98,SW,235,13.0,13.0,87,0.00,,---,0.00,VWS V14.01,2013-05-09 05:46:00,
2013-05-09 01:51:00,65.7,61.7,29.98,SW,235,14.0,15.0,87,0.00,,---,0.00,VWS V14.01,2013-05-09 05:51:00,
2013-05-09 01:56:00,65.8,61.8,29.98,WSW,238,14.0,15.0,87,0.00,,---,0.00,VWS V14.01,2013-05-09 05:56:00,
2013-05-09 02:01:00,65.8,61.8,29.98,WSW,242,14.0,14.0,87,0.00,,---,0.00,VWS V14.01,2013-05-09 06:01:00,
2013-05-09 02:06:00,65.7,61.7,29.98,WSW,242,11.0,12.0,87,0.00,,---,0.00,VWS V14.01,2013-05-09 06:06:00,
2013-05-09 02:11:00,65.7,61.7,29.98,WSW,240,11.0,12.0,87,0.00,,---,0.00,VWS V14.01,2013-05-09 06:11:00,
2013-05-09 02:16:00,65.7,61.7,29.98,WSW,237,14.0,14.0,87,0.00,,---,0.00,VWS V14.01,2013-05-09 06:16:00,
2013-05-09 02:21:00,65.8,61.8,29.97,SW,233,12.0,13.0,87,0.00,,---,0.00,VWS V14.01,2013-05-09 06:21:00,
2013-05-09 02:26:00,65.8,61.8,29.97,SW,234,12.0,16.0,87,0.00,,---,0.00,VWS V14.01,2013-05-09 06:26:00,
2013-05-09 02:31:00,65.7,61.7,29.97,SW,231,15.0,15.0,87,0.00,,---,0.00,VWS V14.01,2013-05-09 06:31:00,
2013-05-09 02:36:00,65.6,61.6,29.97,SW,232,14.0,14.0,87,0.00,,---,0.00,VWS V14.01,2013-05-09 06:36:00,
2013-05-09 02:41:00,65.6,61.6,29.97,SW,232,13.0,14.0,87,0.00,,---,0.00,VWS V14.01,2013-05-09 06:41:00,
2013-05-09 02:46:00,65.5,61.5,29.97,SW,235,13.0,13.0,87,0.00,,---,0.00,VWS V14.01,2013-05-09 06:46:00,
2013-05-09 02:51:00,65.6,61.6,29.97,WSW,237,13.0,15.0,87,0.00,,---,0.00,VWS V14.01,2013-05-09 06:51:00,
2013-05-09 02:56:00,65.6,61.6,29.97,SW,235,14.0,15.0,87,0.00,,---,0.00,VWS V14.01,2013-05-09 06:56:00,
2013-05-09 03:01:00,65.6,61.6,29.97,SW,234,14.0,16.0,87,0.00,,---,0.00,VWS V14.01,2013-05-09 07:01:00,
2013-05-09 03:06:00,65.7,61.7,29.96,SW,236,13.0,16.0,87,0.00,,---,0.00,VWS V14.01,2013-05-09 07:06:00,
2013-05-09 03:11:00,65.8,62.2,29.96,WSW,240,13.0,17.0,88,0.00,,---,0.00,VWS V14.01,2013-05-09 07:11:00,
2013-05-09 03:16:00,65.8,61.8,29.96,WSW,237,12.0,16.0,87,0.00,,---,0.00,VWS V14.01,2013-05-09 07:16:00,
2013-05-09 03:21:00,65.8,61.8,29.96,WSW,239,14.0,16.0,87,0.00,,---,0.00,VWS V14.01,2013-05-09 07:21:00,
2013-05-09 03:26:00,65.8,62.2,29.96,WSW,242,14.0,15.0,88,0.00,,---,0.00,VWS V14.01,2013-05-09 07:26:00,
2013-05-09 03:30:00,65.8,62.2,29.96,WSW,245,14.0,17.0,88,0.00,,---,0.00,VWS V14.01,2013-05-09 07:30:00,
2013-05-09 03:35:00,65.8,62.2,29.97,WSW,254,10.0,15.0,88,0.00,,---,0.00,VWS V14.01,2013-05-09 07:35:00,
2013-05-09 03:40:00,65.8,62.2,29.97,WNW,284,10.0,14.0,88,0.00,,---,0.00,VWS V14.01,2013-05-09 07:40:00,
2013-05-09 03:45:00,65.6,62.0,29.97,West,266,6.0,13.0,88,0.00,,---,0.00,VWS V14.01,2013-05-09 07:45:00,
2013-05-09 03:50:00,65.8,62.2,29.96,WSW,242,15.0,16.0,88,0.00,,---,0.00,VWS V14.01,2013-05-09 07:50:00,
2013-05-09 03:55:00,65.9,62.2,29.96,WSW,250,10.0,17.0,88,0.00,,---,0.00,VWS V14.01,2013-05-09 07:55:00,
2013-05-09 04:00:00,65.8,62.2,29.96,West,271,8.0,14.0,88,0.00,,---,0.00,VWS V14.01,2013-05-09 08:00:00,
2013-05-09 04:05:00,65.7,62.0,29.97,WSW,251,12.0,14.0,88,0.00,,---,0.00,VWS V14.01,2013-05-09 08:05:00,
2013-05-09 04:10:00,65.7,62.4,29.97,WSW,250,14.0,14.0,89,0.00,,---,0.00,VWS V14.01,2013-05-09 08:10:00,
2013-05-09 04:15:00,65.6,62.3,29.97,West,271,9.0,15.0,89,0.00,,---,0.00,VWS V14.01,2013-05-09 08:15:00,
2013-05-09 04:20:00,65.3,62.0,29.98,West,276,10.0,12.0,89,0.00,,---,0.00,VWS V14.01,2013-05-09 08:20:00,
2013-05-09 04:25:00,65.4,62.1,29.98,West,271,10.0,11.0,89,0.00,,---,0.00,VWS V14.01,2013-05-09 08:25:00,
2013-05-09 04:30:00,65.5,62.5,29.98,West,263,9.0,13.0,90,0.00,,---,0.00,VWS V14.01,2013-05-09 08:30:00,
2013-05-09 04:35:00,65.5,62.5,29.97,West,260,7.0,12.0,90,0.00,,---,0.00,VWS V14.01,2013-05-09 08:35:00,
2013-05-09 04:40:00,65.5,62.5,29.97,WSW,255,10.0,12.0,90,0.00,,---,0.00,VWS V14.01,2013-05-09 08:40:00,
2013-05-09 04:45:00,65.5,62.5,29.97,WSW,254,8.0,11.0,90,0.00,,---,0.00,VWS V14.01,2013-05-09 08:45:00,
2013-05-09 04:50:00,65.5,62.5,29.97,WSW,254,11.0,11.0,90,0.00,,---,0.00,VWS V14.01,2013-05-09 08:50:00,
2013-05-09 04:55:00,65.4,62.4,29.97,WSW,246,10.0,12.0,90,0.00,,---,0.00,VWS V14.01,2013-05-09 08:55:00,
2013-05-09 05:00:00,65.4,62.4,29.97,WSW,241,12.0,14.0,90,0.00,,---,0.00,VWS V14.01,2013-05-09 09:00:00,
2013-05-09 05:05:00,65.5,62.2,29.97,WSW,240,11.0,13.0,89,0.00,,---,0.00,VWS V14.01,2013-05-09 09:05:00,
2013-05-09 05:10:00,65.5,62.5,29.97,WSW,239,10.0,14.0,90,0.00,,---,0.00,VWS V14.01,2013-05-09 09:10:00,
2013-05-09 05:15:00,65.4,62.1,29.97,WSW,239,10.0,12.0,89,0.00,,---,0.00,VWS V14.01,2013-05-09 09:15:00,
2013-05-09 05:20:00,65.4,62.4,29.97,WSW,239,9.0,11.0,90,0.00,,---,0.00,VWS V14.01,2013-05-09 09:20:00,
2013-05-09 05:25:00,65.4,62.4,29.97,WSW,241,12.0,12.0,90,0.00,,---,0.00,VWS V14.01,2013-05-09 09:25:00,
2013-05-09 05:30:00,65.4,62.4,29.97,WSW,244,9.0,12.0,90,0.00,,---,0.00,VWS V14.01,2013-05-09 09:30:00,
2013-05-09 05:35:00,65.4,62.4,29.98,WSW,244,10.0,13.0,90,0.00,,---,0.00,VWS V14.01,2013-05-09 09:35:00,
2013-05-09 05:40:00,65.4,62.4,29.98,WSW,244,12.0,13.0,90,0.00,,---,0.00,VWS V14.01,2013-05-09 09:40:00,
2013-05-09 05:45:00,65.4,62.4,29.98,WSW,245,12.0,14.0,90,0.00,,---,0.00,VWS V14.01,2013-05-09 09:45:00,
2013-05-09 05:50:00,65.4,62.4,29.98,WSW,246,10.0,13.0,90,0.00,,---,0.00,VWS V14.01,2013-05-09 09:50:00,
2013-05-09 05:55:00,65.3,62.3,29.98,WSW,246,10.0,13.0,90,0.00,,---,0.00,VWS V14.01,2013-05-09 09:55:00,
2013-05-09 06:00:00,65.3,62.3,29.98,WSW,246,11.0,13.0,90,0.00,,---,0.00,VWS V14.01,2013-05-09 10:00:00,
2013-05-09 06:05:00,65.3,62.3,29.98,WSW,250,10.0,12.0,90,0.00,,---,0.00,VWS V14.01,2013-05-09 10:05:00,
2013-05-09 06:10:00,65.2,62.2,29.98,WSW,250,10.0,12.0,90,0.00,,---,0.00,VWS V14.01,2013-05-09 10:10:00,
2013-05-09 06:15:00,65.2,62.2,29.98,WSW,252,9.0,13.0,90,0.00,,---,0.00,VWS V14.01,2013-05-09 10:15:00,
2013-05-09 06:20:00,65.2,62.5,29.98,WSW,253,11.0,12.0,91,0.00,,---,0.00,VWS V14.01,2013-05-09 10:20:00,
2013-05-09 06:25:00,65.2,62.5,29.98,WSW,255,10.0,12.0,91,0.00,,---,0.00,VWS V14.01,2013-05-09 10:25:00,
2013-05-09 06:30:00,65.2,62.5,29.98,West,259,10.0,12.0,91,0.00,,---,0.00,VWS V14.01,2013-05-09 10:30:00,
2013-05-09 06:35:00,65.2,62.5,29.98,West,259,10.0,11.0,91,0.00,,---,0.00,VWS V14.01,2013-05-09 10:35:00,
2013-05-09 06:40:00,65.1,62.4,29.98,West,259,11.0,12.0,91,0.00,,---,0.00,VWS V14.01,2013-05-09 10:40:00,
2013-05-09 06:45:00,65.1,62.4,29.98,West,259,7.0,11.0,91,0.00,,---,0.00,VWS V14.01,2013-05-09 10:45:00,
2013-05-09 06:50:00,65.1,62.7,29.99,West,259,6.0,9.0,92,0.00,,---,0.00,VWS V14.01,2013-05-09 10:50:00,
2013-05-09 06:55:00,65.2,62.8,29.99,West,259,7.0,9.0,92,0.00,,---,0.00,VWS V14.01,2013-05-09 10:55:00,
2013-05-09 07:00:00,65.0,62.6,29.99,West,260,9.0,10.0,92,0.00,,---,0.00,VWS V14.01,2013-05-09 11:00:00,
2013-05-09 07:05:00,65.0,62.6,29.99,West,260,6.0,11.0,92,0.00,,---,0.00,VWS V14.01,2013-05-09 11:05:00,
2013-05-09 07:10:00,65.2,62.8,29.99,West,261,4.0,8.0,92,0.00,,---,0.00,VWS V14.01,2013-05-09 11:10:00,
2013-05-09 07:15:00,65.1,62.7,29.99,West,261,6.0,8.0,92,0.00,,---,0.00,VWS V14.01,2013-05-09 11:15:00,
2013-05-09 07:20:00,65.1,62.7,29.99,West,260,5.0,9.0,92,0.00,,---,0.00,VWS V14.01,2013-05-09 11:20:00,
2013-05-09 07:25:00,65.0,62.6,29.99,West,261,5.0,10.0,92,0.00,,---,0.00,VWS V14.01,2013-05-09 11:25:00,
2013-05-09 07:30:00,64.7,61.7,29.99,West,272,7.0,11.0,90,0.00,,---,0.00,VWS V14.01,2013-05-09 11:30:00,
2013-05-09 07:35:00,65.2,61.9,30.00,West,273,7.0,10.0,89,0.00,,---,0.00,VWS V14.01,2013-05-09 11:35:00,
2013-05-09 07:40:00,65.6,62.0,30.00,West,265,9.0,11.0,88,0.00,,---,0.00,VWS V14.01,2013-05-09 11:40:00,
2013-05-09 07:45:00,65.7,61.7,30.00,West,261,10.0,11.0,87,0.00,,---,0.00,VWS V14.01,2013-05-09 11:45:00,
2013-05-09 07:50:00,65.6,61.6,30.01,West,260,10.0,13.0,87,0.00,,---,0.00,VWS V14.01,2013-05-09 11:50:00,
2013-05-09 07:55:00,65.5,61.2,30.01,WSW,257,11.0,14.0,86,0.00,,---,0.00,VWS V14.01,2013-05-09 11:55:00,
2013-05-09 08:00:00,65.4,61.1,30.01,WSW,254,10.0,13.0,86,0.00,,---,0.00,VWS V14.01,2013-05-09 12:00:00,
2013-05-09 08:05:00,65.4,61.1,30.01,WSW,254,11.0,13.0,86,0.00,,---,0.00,VWS V14.01,2013-05-09 12:05:00,
2013-05-09 08:10:00,65.4,61.1,30.01,WSW,257,11.0,13.0,86,0.00,,---,0.00,VWS V14.01,2013-05-09 12:10:00,
2013-05-09 08:15:00,65.3,61.0,30.01,WSW,257,10.0,12.0,86,0.00,,---,0.00,VWS V14.01,2013-05-09 12:15:00,
2013-05-09 08:20:00,65.3,61.0,30.01,WSW,255,9.0,11.0,86,0.00,,---,0.00,VWS V14.01,2013-05-09 12:20:00,
2013-05-09 08:25:00,65.3,61.3,30.01,WSW,254,11.0,12.0,87,0.00,,---,0.00,VWS V14.01,2013-05-09 12:25:00,
2013-05-09 08:30:00,65.3,61.3,30.01,West,261,13.0,14.0,87,0.00,,---,0.00,VWS V14.01,2013-05-09 12:30:00,
2013-05-09 08:35:00,65.3,61.3,30.02,West,262,11.0,13.0,87,0.00,,---,0.00,VWS V14.01,2013-05-09 12:35:00,
2013-05-09 08:40:00,65.3,61.3,30.02,West,261,6.0,12.0,87,0.00,,---,0.00,VWS V14.01,2013-05-09 12:40:00,
2013-05-09 08:45:00,65.3,61.3,30.02,West,261,10.0,12.0,87,0.00,,---,0.00,VWS V14.01,2013-05-09 12:45:00,
2013-05-09 08:50:00,65.3,61.3,30.02,West,259,12.0,13.0,87,0.00,,---,0.00,VWS V14.01,2013-05-09 12:50:00,
2013-05-09 08:55:00,65.1,61.1,30.02,WSW,256,11.0,12.0,87,0.00,,---,0.00,VWS V14.01,2013-05-09 12:55:00,
2013-05-09 09:00:00,65.0,61.0,30.02,WSW,255,10.0,13.0,87,0.00,,---,0.00,VWS V14.01,2013-05-09 13:00:00,
2013-05-09 09:05:00,65.1,61.5,30.02,WSW,254,9.0,13.0,88,0.00,,---,0.00,VWS V14.01,2013-05-09 13:05:00,
2013-05-09 09:10:00,65.0,61.4,30.02,WSW,252,6.0,12.0,88,0.00,,---,0.00,VWS V14.01,2013-05-09 13:10:00,
2013-05-09 09:15:00,65.1,61.5,30.02,WSW,252,10.0,12.0,88,0.00,,---,0.00,VWS V14.01,2013-05-09 13:15:00,
2013-05-09 09:20:00,65.0,61.4,30.02,WSW,254,9.0,12.0,88,0.00,,---,0.00,VWS V14.01,2013-05-09 13:20:00,
2013-05-09 09:25:00,65.0,61.4,30.02,WSW,254,10.0,12.0,88,0.00,,---,0.00,VWS V14.01,2013-05-09 13:25:00,
2013-05-09 09:30:00,65.1,61.5,30.02,WSW,256,7.0,12.0,88,0.00,,---,0.00,VWS V14.01,2013-05-09 13:30:00,
2013-05-09 09:35:00,65.2,61.9,30.03,WSW,253,10.0,12.0,89,0.00,,---,0.00,VWS V14.01,2013-05-09 13:35:00,
2013-05-09 09:40:00,64.9,61.3,30.03,WSW,252,9.0,12.0,88,0.00,,---,0.00,VWS V14.01,2013-05-09 13:40:00,
2013-05-09 09:45:00,65.0,61.4,30.03,WSW,252,12.0,12.0,88,0.00,,---,0.00,VWS V14.01,2013-05-09 13:45:00,
2013-05-09 09:50:00,64.9,61.3,30.03,WSW,250,10.0,11.0,88,0.00,,---,0.00,VWS V14.01,2013-05-09 13:50:00,
2013-05-09 09:55:00,65.0,61.7,30.03,WSW,250,11.0,11.0,89,0.00,,---,0.00,VWS V14.01,2013-05-09 13:55:00,
2013-05-09 10:00:00,64.9,61.3,30.03,WSW,250,9.0,11.0,88,0.00,,---,0.00,VWS V14.01,2013-05-09 14:00:00,
2013-05-09 10:05:00,65.0,61.4,30.03,WSW,250,10.0,10.0,88,0.00,,---,0.00,VWS V14.01,2013-05-09 14:05:00,
2013-05-09 10:10:00,65.0,61.7,30.03,WSW,249,10.0,11.0,89,0.00,,---,0.00,VWS V14.01,2013-05-09 14:10:00,
2013-05-09 10:15:00,65.2,61.9,30.03,WSW,249,9.0,10.0,89,0.00,,---,0.00,VWS V14.01,2013-05-09 14:15:00,
2013-05-09 10:20:00,65.1,61.8,30.03,WSW,249,9.0,10.0,89,0.00,,---,0.00,VWS V14.01,2013-05-09 14:20:00,
2013-05-09 10:25:00,65.1,61.8,30.03,WSW,249,9.0,11.0,89,0.00,,---,0.00,VWS V14.01,2013-05-09 14:25:00,
2013-05-09 10:30:00,65.2,61.9,30.03,WSW,248,9.0,10.0,89,0.00,,---,0.00,VWS V14.01,2013-05-09 14:30:00,
2013-05-09 10:35:00,65.3,62.0,30.03,WSW,246,7.0,10.0,89,0.00,,---,0.00,VWS V14.01,2013-05-09 14:35:00,
2013-05-09 10:40:00,65.3,62.0,30.03,WSW,245,8.0,10.0,89,0.00,,---,0.00,VWS V14.01,2013-05-09 14:40:00,
2013-05-09 10:45:00,65.4,62.1,30.03,WSW,243,10.0,11.0,89,0.00,,---,0.00,VWS V14.01,2013-05-09 14:45:00,
2013-05-09 10:50:00,65.4,62.1,30.03,WSW,243,10.0,11.0,89,0.00,,---,0.00,VWS V14.01,2013-05-09 14:50:00,
2013-05-09 10:55:00,65.4,62.4,30.03,WSW,243,7.0,11.0,90,0.00,,---,0.00,VWS V14.01,2013-05-09 14:55:00,
2013-05-09 11:00:00,65.5,62.5,30.03,WSW,243,9.0,11.0,90,0.00,,---,0.00,VWS V14.01,2013-05-09 15:00:00,
2013-05-09 11:05:00,65.5,62.5,30.03,WSW,243,7.0,11.0,90,0.00,,---,0.00,VWS V14.01,2013-05-09 15:05:00,
2013-05-09 11:10:00,65.7,62.7,30.03,WSW,242,10.0,11.0,90,0.00,,---,0.00,VWS V14.01,2013-05-09 15:10:00,
2013-05-09 11:15:00,65.6,62.6,30.03,WSW,240,9.0,12.0,90,0.00,,---,0.00,VWS V14.01,2013-05-09 15:15:00,
2013-05-09 11:20:00,65.6,62.6,30.03,WSW,240,11.0,12.0,90,0.00,,---,0.00,VWS V14.01,2013-05-09 15:20:00,
2013-05-09 11:25:00,65.6,62.6,30.03,WSW,239,10.0,12.0,90,0.00,,---,0.00,VWS V14.01,2013-05-09 15:25:00,
2013-05-09 11:30:00,65.6,62.6,30.03,WSW,237,9.0,12.0,90,0.00,,---,0.00,VWS V14.01,2013-05-09 15:30:00,
2013-05-09 11:35:00,65.5,62.5,30.03,WSW,237,9.0,12.0,90,0.00,,---,0.00,VWS V14.01,2013-05-09 15:35:00,
2013-05-09 11:40:00,65.6,62.6,30.03,WSW,237,9.0,12.0,90,0.00,,---,0.00,VWS V14.01,2013-05-09 15:40:00,
2013-05-09 11:45:00,65.5,62.5,30.03,SW,236,11.0,13.0,90,0.00,,---,0.00,VWS V14.01,2013-05-09 15:45:00,
2013-05-09 11:50:00,65.6,62.6,30.04,SW,234,11.0,12.0,90,0.00,,---,0.00,VWS V14.01,2013-05-09 15:50:00,
2013-05-09 11:55:00,65.8,62.8,30.04,SW,235,9.0,12.0,90,0.00,,---,0.00,VWS V14.01,2013-05-09 15:55:00,
2013-05-09 12:00:00,65.9,62.9,30.04,SW,235,8.0,10.0,90,0.00,,---,0.00,VWS V14.01,2013-05-09 16:00:00,
2013-05-09 12:05:00,65.8,62.8,30.04,SW,235,11.0,12.0,90,0.00,,---,0.00,VWS V14.01,2013-05-09 16:05:00,
2013-05-09 12:10:00,65.9,62.9,30.04,SW,232,11.0,12.0,90,0.00,,---,0.00,VWS V14.01,2013-05-09 16:10:00,
2013-05-09 12:15:00,66.0,63.0,30.04,SW,229,8.0,13.0,90,0.00,,---,0.00,VWS V14.01,2013-05-09 16:15:00,
2013-05-09 12:20:00,66.0,63.0,30.04,SW,221,10.0,13.0,90,0.00,,---,0.00,VWS V14.01,2013-05-09 16:20:00,
2013-05-09 12:25:00,65.9,62.9,30.03,SW,221,9.0,13.0,90,0.00,,---,0.00,VWS V14.01,2013-05-09 16:25:00,
2013-05-09 12:30:00,66.0,63.0,30.03,SW,222,11.0,12.0,90,0.00,,---,0.00,VWS V14.01,2013-05-09 16:30:00,
2013-05-09 12:35:00,65.8,62.8,30.03,SW,222,11.0,12.0,90,0.00,,---,0.00,VWS V14.01,2013-05-09 16:35:00,
2013-05-09 12:40:00,65.9,62.9,30.03,SW,222,12.0,12.0,90,0.00,,---,0.00,VWS V14.01,2013-05-09 16:40:00,
2013-05-09 12:45:00,65.7,62.7,30.03,SW,222,14.0,14.0,90,0.00,,---,0.00,VWS V14.01,2013-05-09 16:45:00,
2013-05-09 12:50:00,65.7,62.7,30.03,SW,223,11.0,15.0,90,0.00,,---,0.00,VWS V14.01,2013-05-09 16:50:00,
2013-05-09 12:55:00,65.8,63.1,30.03,SW,223,10.0,12.0,91,0.00,,---,0.00,VWS V14.01,2013-05-09 16:55:00,
2013-05-09 13:00:00,65.8,62.8,30.03,SW,223,11.0,12.0,90,0.00,,---,0.00,VWS V14.01,2013-05-09 17:00:00,
2013-05-09 13:05:00,65.9,62.9,30.03,SW,223,9.0,12.0,90,0.00,,---,0.00,VWS V14.01,2013-05-09 17:05:00,
2013-05-09 13:10:00,66.3,63.3,30.03,SW,223,11.0,11.0,90,0.00,,---,0.00,VWS V14.01,2013-05-09 17:10:00,
2013-05-09 13:15:00,66.2,63.2,30.03,SW,220,9.0,11.0,90,0.00,,---,0.00,VWS V14.01,2013-05-09 17:15:00,
2013-05-09 13:20:00,66.3,63.3,30.03,SW,221,11.0,12.0,90,0.00,,---,0.00,VWS V14.01,2013-05-09 17:20:00,
2013-05-09 13:25:00,66.3,63.0,30.02,SW,222,13.0,15.0,89,0.00,,---,0.00,VWS V14.01,2013-05-09 17:25:00,
2013-05-09 13:30:00,66.1,62.8,30.02,SW,221,12.0,16.0,89,0.00,,---,0.00,VWS V14.01,2013-05-09 17:30:00,
2013-05-09 13:35:00,66.2,62.9,30.02,SW,219,12.0,14.0,89,0.00,,---,0.00,VWS V14.01,2013-05-09 17:35:00,
2013-05-09 13:40:00,66.5,63.5,30.02,SW,219,15.0,15.0,90,0.00,,---,0.00,VWS V14.01,2013-05-09 17:40:00,
2013-05-09 13:45:00,66.3,63.0,30.02,SW,223,15.0,18.0,89,0.00,,---,0.00,VWS V14.01,2013-05-09 17:45:00,
2013-05-09 13:50:00,66.4,63.1,30.02,SW,219,14.0,18.0,89,0.00,,---,0.00,VWS V14.01,2013-05-09 17:50:00,
2013-05-09 13:55:00,66.5,63.2,30.02,SW,221,16.0,18.0,89,0.00,,---,0.00,VWS V14.01,2013-05-09 17:55:00,
2013-05-09 14:00:00,66.5,63.2,30.02,SW,221,15.0,19.0,89,0.00,,---,0.00,VWS V14.01,2013-05-09 18:00:00,
2013-05-09 14:05:00,66.5,62.8,30.02,SW,219,16.0,17.0,88,0.00,,---,0.00,VWS V14.01,2013-05-09 18:05:00,
2013-05-09 14:10:00,66.4,62.7,30.02,SW,218,16.0,19.0,88,0.00,,---,0.00,VWS V14.01,2013-05-09 18:10:00,
2013-05-09 14:15:00,66.5,62.8,30.02,SW,220,15.0,19.0,88,0.00,,---,0.00,VWS V14.01,2013-05-09 18:15:00,
2013-05-09 14:20:00,66.4,63.1,30.02,SW,220,15.0,18.0,89,0.00,,---,0.00,VWS V14.01,2013-05-09 18:20:00,
2013-05-09 14:25:00,66.4,62.7,30.02,SW,220,18.0,20.0,88,0.00,,---,0.00,VWS V14.01,2013-05-09 18:25:00,
2013-05-09 14:30:00,66.4,63.1,30.02,SW,219,15.0,18.0,89,0.00,,---,0.00,VWS V14.01,2013-05-09 18:30:00,
2013-05-09 14:35:00,66.3,62.6,30.02,SW,217,15.0,18.0,88,0.00,,---,0.00,VWS V14.01,2013-05-09 18:35:00,
2013-05-09 14:40:00,66.3,62.6,30.02,SW,221,17.0,19.0,88,0.00,,---,0.00,VWS V14.01,2013-05-09 18:40:00,
2013-05-09 14:45:00,66.4,62.7,30.02,SW,221,19.0,20.0,88,0.00,,---,0.00,VWS V14.01,2013-05-09 18:45:00,
2013-05-09 14:50:00,66.4,62.7,30.02,SW,219,16.0,18.0,88,0.00,,---,0.00,VWS V14.01,2013-05-09 18:50:00,
2013-05-09 14:55:00,66.5,62.8,30.02,SW,217,16.0,18.0,88,0.00,,---,0.00,VWS V14.01,2013-05-09 18:55:00,
2013-05-09 14:59:00,66.5,62.8,30.02,SW,217,15.0,17.0,88,0.00,,---,0.00,VWS V14.01,2013-05-09 18:59:00,
2013-05-09 15:04:00,66.7,63.0,30.02,SW,218,16.0,16.0,88,0.00,,---,0.00,VWS V14.01,2013-05-09 19:04:00,
2013-05-09 15:09:00,66.7,62.7,30.01,SW,224,17.0,18.0,87,0.00,,---,0.00,VWS V14.01,2013-05-09 19:09:00,
2013-05-09 15:14:00,66.8,62.8,30.01,SW,222,17.0,18.0,87,0.00,,---,0.00,VWS V14.01,2013-05-09 19:14:00,
2013-05-09 15:19:00,66.7,62.7,30.01,SW,220,13.0,17.0,87,0.00,,---,0.00,VWS V14.01,2013-05-09 19:19:00,
2013-05-09 15:24:00,66.8,62.8,30.01,SW,221,12.0,17.0,87,0.00,,---,0.00,VWS V14.01,2013-05-09 19:24:00,
2013-05-09 15:29:00,67.0,63.0,30.01,SW,226,15.0,16.0,87,0.00,,---,0.00,VWS V14.01,2013-05-09 19:29:00,
2013-05-09 15:34:00,67.2,62.9,30.01,SW,227,14.0,17.0,86,0.00,,---,0.00,VWS V14.01,2013-05-09 19:34:00,
2013-05-09 15:39:00,67.3,63.0,30.01,SW,224,15.0,17.0,86,0.00,,---,0.00,VWS V14.01,2013-05-09 19:39:00,
2013-05-09 15:44:00,67.3,63.0,30.01,SW,225,15.0,16.0,86,0.00,,---,0.00,VWS V14.01,2013-05-09 19:44:00,
2013-05-09 15:49:00,67.4,63.1,30.01,SW,223,13.0,15.0,86,0.00,,---,0.00,VWS V14.01,2013-05-09 19:49:00,
2013-05-09 15:54:00,67.5,63.2,30.01,SW,221,14.0,15.0,86,0.00,,---,0.00,VWS V14.01,2013-05-09 19:54:00,
2013-05-09 15:59:00,67.6,62.9,30.01,SW,218,13.0,16.0,85,0.00,,---,0.00,VWS V14.01,2013-05-09 19:59:00,
2013-05-09 16:04:00,67.3,63.0,30.01,SW,215,14.0,17.0,86,0.00,,---,0.00,VWS V14.01,2013-05-09 20:04:00,
2013-05-09 16:09:00,67.2,63.2,30.01,SW,216,15.0,17.0,87,0.00,,---,0.00,VWS V14.01,2013-05-09 20:09:00,
2013-05-09 16:14:00,67.3,63.3,30.01,SW,218,13.0,17.0,87,0.00,,---,0.00,VWS V14.01,2013-05-09 20:14:00,
2013-05-09 16:19:00,67.5,63.5,30.01,SW,217,14.0,17.0,87,0.00,,---,0.00,VWS V14.01,2013-05-09 20:19:00,
2013-05-09 16:24:00,67.5,63.5,30.01,SW,217,16.0,20.0,87,0.00,,---,0.00,VWS V14.01,2013-05-09 20:24:00,
2013-05-09 16:29:00,67.5,63.8,30.01,SW,219,15.0,20.0,88,0.00,,---,0.00,VWS V14.01,2013-05-09 20:29:00,
2013-05-09 16:34:00,67.4,63.7,30.01,SW,223,18.0,20.0,88,0.00,,---,0.00,VWS V14.01,2013-05-09 20:34:00,
2013-05-09 16:39:00,67.4,63.7,30.00,SW,222,17.0,19.0,88,0.00,,---,0.00,VWS V14.01,2013-05-09 20:39:00,
2013-05-09 16:44:00,67.5,63.8,30.00,SW,223,14.0,18.0,88,0.00,,---,0.00,VWS V14.01,2013-05-09 20:44:00,
2013-05-09 16:49:00,67.6,63.9,30.00,SW,223,17.0,20.0,88,0.00,,---,0.00,VWS V14.01,2013-05-09 20:49:00,
2013-05-09 16:54:00,67.7,64.0,30.01,SW,223,17.0,19.0,88,0.00,,---,0.00,VWS V14.01,2013-05-09 20:54:00,
2013-05-09 16:59:00,67.7,64.0,30.01,SW,221,18.0,19.0,88,0.00,,---,0.00,VWS V14.01,2013-05-09 20:59:00,
2013-05-09 17:04:00,67.7,64.0,30.01,SW,221,17.0,19.0,88,0.00,,---,0.00,VWS V14.01,2013-05-09 21:04:00,
2013-05-09 17:09:00,67.6,63.9,30.00,SW,223,16.0,19.0,88,0.00,,---,0.00,VWS V14.01,2013-05-09 21:09:00,
2013-05-09 17:14:00,67.7,64.0,30.00,SW,224,17.0,18.0,88,0.00,,---,0.00,VWS V14.01,2013-05-09 21:14:00,
2013-05-09 17:19:00,67.6,63.9,30.00,SW,223,14.0,18.0,88,0.00,,---,0.00,VWS V14.01,2013-05-09 21:19:00,
2013-05-09 17:24:00,67.6,63.9,30.01,SW,225,15.0,20.0,88,0.00,,---,0.00,VWS V14.01,2013-05-09 21:24:00,
2013-05-09 17:29:00,67.6,63.6,30.01,SW,226,20.0,20.0,87,0.00,,---,0.00,VWS V14.01,2013-05-09 21:29:00,
2013-05-09 17:34:00,67.7,63.7,30.01,SW,226,19.0,21.0,87,0.00,,---,0.00,VWS V14.01,2013-05-09 21:34:00,
2013-05-09 17:39:00,67.6,63.6,30.01,SW,225,16.0,19.0,87,0.00,,---,0.00,VWS V14.01,2013-05-09 21:39:00,
2013-05-09 17:44:00,67.7,63.7,30.01,SW,224,17.0,18.0,87,0.00,,---,0.00,VWS V14.01,2013-05-09 21:44:00,
2013-05-09 17:49:00,67.6,63.6,30.01,SW,225,14.0,19.0,87,0.00,,---,0.00,VWS V14.01,2013-05-09 21:49:00,
2013-05-09 17:54:00,67.7,63.4,30.01,SW,226,16.0,16.0,86,0.00,,---,0.00,VWS V14.01,2013-05-09 21:54:00,
2013-05-09 17:59:00,67.8,63.5,30.01,SW,227,15.0,19.0,86,0.00,,---,0.00,VWS V14.01,2013-05-09 21:59:00,
2013-05-09 18:04:00,67.7,63.4,30.01,SW,229,16.0,18.0,86,0.00,,---,0.00,VWS V14.01,2013-05-09 22:04:00,
2013-05-09 18:09:00,67.6,63.6,30.01,SW,233,14.0,16.0,87,0.00,,---,0.00,VWS V14.01,2013-05-09 22:09:00,
2013-05-09 18:14:00,67.6,63.3,30.01,SW,232,16.0,16.0,86,0.00,,---,0.00,VWS V14.01,2013-05-09 22:14:00,
2013-05-09 18:19:00,67.7,63.4,30.01,SW,232,14.0,16.0,86,0.00,,---,0.00,VWS V14.01,2013-05-09 22:19:00,
2013-05-09 18:24:00,67.7,63.4,30.01,SW,232,18.0,18.0,86,0.00,,---,0.00,VWS V14.01,2013-05-09 22:24:00,
2013-05-09 18:29:00,67.8,63.5,30.01,SW,235,15.0,17.0,86,0.00,,---,0.00,VWS V14.01,2013-05-09 22:29:00,
2013-05-09 18:34:00,67.7,63.4,30.01,WSW,238,15.0,17.0,86,0.00,,---,0.00,VWS V14.01,2013-05-09 22:34:00,
2013-05-09 18:39:00,67.7,63.4,30.01,SW,236,12.0,14.0,86,0.00,,---,0.00,VWS V14.01,2013-05-09 22:39:00,
2013-05-09 18:44:00,67.7,63.4,30.01,WSW,239,12.0,15.0,86,0.00,,---,0.00,VWS V14.01,2013-05-09 22:44:00,
2013-05-09 18:49:00,67.8,63.5,30.01,WSW,244,11.0,14.0,86,0.00,,---,0.00,VWS V14.01,2013-05-09 22:49:00,
2013-05-09 18:54:00,67.7,63.4,30.01,WSW,245,10.0,13.0,86,0.00,,---,0.00,VWS V14.01,2013-05-09 22:54:00,
2013-05-09 18:59:00,67.7,63.4,30.01,WSW,246,6.0,11.0,86,0.00,,---,0.00,VWS V14.01,2013-05-09 22:59:00,
2013-05-09 19:04:00,67.8,63.5,30.01,WSW,246,10.0,11.0,86,0.00,,---,0.00,VWS V14.01,2013-05-09 23:04:00,
2013-05-09 19:09:00,67.8,63.5,30.02,WSW,247,8.0,12.0,86,0.00,,---,0.00,VWS V14.01,2013-05-09 23:09:00,
2013-05-09 19:14:00,67.8,63.5,30.02,WSW,249,10.0,11.0,86,0.00,,---,0.00,VWS V14.01,2013-05-09 23:14:00,
2013-05-09 19:19:00,67.8,63.8,30.02,WSW,248,10.0,13.0,87,0.00,,---,0.00,VWS V14.01,2013-05-09 23:19:00,
2013-05-09 19:24:00,67.7,63.7,30.02,WSW,251,11.0,13.0,87,0.00,,---,0.00,VWS V14.01,2013-05-09 23:24:00,
2013-05-09 19:29:00,67.7,63.7,30.02,WSW,252,9.0,11.0,87,0.00,,---,0.00,VWS V14.01,2013-05-09 23:29:00,
2013-05-09 19:34:00,67.6,63.6,30.02,WSW,251,11.0,13.0,87,0.00,,---,0.00,VWS V14.01,2013-05-09 23:34:00,
2013-05-09 19:39:00,67.6,63.6,30.02,WSW,250,10.0,11.0,87,0.00,,---,0.00,VWS V14.01,2013-05-09 23:39:00,
2013-05-09 19:44:00,67.5,63.5,30.02,WSW,250,7.0,9.0,87,0.00,,---,0.00,VWS V14.01,2013-05-09 23:44:00,
2013-05-09 19:49:00,67.4,63.7,30.02,WSW,249,8.0,9.0,88,0.00,,---,0.00,VWS V14.01,2013-05-09 23:49:00,
2013-05-09 19:54:00,67.4,63.7,30.03,WSW,248,8.0,10.0,88,0.00,,---,0.00,VWS V14.01,2013-05-09 23:54:00,
2013-05-09 19:59:00,67.4,63.7,30.03,WSW,246,9.0,12.0,88,0.00,,---,0.00,VWS V14.01,2013-05-09 23:59:00,
2013-05-09 20:04:00,67.4,63.7,30.03,WSW,246,8.0,11.0,88,0.00,,---,0.00,VWS V14.01,2013-05-10 00:04:00,
2013-05-09 20:09:00,67.4,63.7,30.04,WSW,247,6.0,11.0,88,0.00,,---,0.00,VWS V14.01,2013-05-10 00:09:00,
2013-05-09 20:14:00,67.5,63.8,30.04,WSW,246,6.0,11.0,88,0.00,,---,0.00,VWS V14.01,2013-05-10 00:14:00,
2013-05-09 20:19:00,67.5,63.8,30.04,WSW,252,5.0,9.0,88,0.00,,---,0.00,VWS V14.01,2013-05-10 00:19:00,
2013-05-09 20:24:00,67.4,63.7,30.04,WSW,252,1.0,4.0,88,0.00,,---,0.00,VWS V14.01,2013-05-10 00:24:00,
2013-05-09 20:29:00,67.4,63.7,30.04,WSW,252,5.0,7.0,88,0.00,,---,0.00,VWS V14.01,2013-05-10 00:29:00,
2013-05-09 20:34:00,67.4,63.7,30.04,WSW,256,7.0,10.0,88,0.00,,---,0.00,VWS V14.01,2013-05-10 00:34:00,
2013-05-09 20:39:00,67.4,63.7,30.05,WSW,257,8.0,10.0,88,0.00,,---,0.00,VWS V14.01,2013-05-10 00:39:00,
2013-05-09 20:44:00,67.4,63.7,30.05,WSW,256,6.0,10.0,88,0.00,,---,0.00,VWS V14.01,2013-05-10 00:44:00,
2013-05-09 20:49:00,67.4,63.7,30.05,WSW,256,7.0,9.0,88,0.00,,---,0.00,VWS V14.01,2013-05-10 00:49:00,
2013-05-09 20:54:00,67.3,63.6,30.05,WSW,254,6.0,8.0,88,0.00,,---,0.00,VWS V14.01,2013-05-10 00:54:00,
2013-05-09 20:59:00,67.2,63.8,30.05,WSW,254,5.0,8.0,89,0.00,,---,0.00,VWS V14.01,2013-05-10 00:59:00,
2013-05-09 21:04:00,67.2,63.8,30.05,WSW,254,5.0,7.0,89,0.00,,---,0.00,VWS V14.01,2013-05-10 01:04:00,
2013-05-09 21:09:00,67.2,63.8,30.06,WSW,254,4.0,6.0,89,0.00,,---,0.00,VWS V14.01,2013-05-10 01:09:00,
2013-05-09 21:14:00,67.1,63.8,30.06,WSW,254,5.0,7.0,89,0.00,,---,0.00,VWS V14.01,2013-05-10 01:14:00,
2013-05-09 21:19:00,67.0,64.0,30.06,WSW,254,5.0,6.0,90,0.00,,---,0.00,VWS V14.01,2013-05-10 01:19:00,
2013-05-09 21:24:00,67.0,64.0,30.06,WSW,254,5.0,6.0,90,0.00,,---,0.00,VWS V14.01,2013-05-10 01:24:00,
2013-05-09 21:29:00,67.0,64.0,30.06,WSW,254,2.0,6.0,90,0.00,,---,0.00,VWS V14.01,2013-05-10 01:29:00,
2013-05-09 21:34:00,66.9,63.9,30.06,WSW,254,4.0,5.0,90,0.00,,---,0.00,VWS V14.01,2013-05-10 01:34:00,
2013-05-09 21:39:00,66.8,63.8,30.07,WSW,254,6.0,7.0,90,0.00,,---,0.00,VWS V14.01,2013-05-10 01:39:00,
2013-05-09 21:44:00,66.8,63.8,30.07,WSW,254,5.0,6.0,90,0.00,,---,0.00,VWS V14.01,2013-05-10 01:44:00,
2013-05-09 21:49:00,66.8,63.8,30.07,WSW,254,5.0,7.0,90,0.00,,---,0.00,VWS V14.01,2013-05-10 01:49:00,
2013-05-09 21:54:00,66.7,63.7,30.07,WSW,254,4.0,6.0,90,0.00,,---,0.00,VWS V14.01,2013-05-10 01:54:00,
2013-05-09 21:59:00,66.7,63.7,30.07,WSW,254,5.0,6.0,90,0.00,,---,0.00,VWS V14.01,2013-05-10 01:59:00,
2013-05-09 22:04:00,66.6,63.9,30.07,WSW,254,6.0,9.0,91,0.00,,---,0.00,VWS V14.01,2013-05-10 02:04:00,
2013-05-09 22:09:00,66.7,64.0,30.07,WSW,254,5.0,6.0,91,0.00,,---,0.00,VWS V14.01,2013-05-10 02:09:00,
2013-05-09 22:14:00,66.7,64.0,30.07,WSW,254,5.0,6.0,91,0.00,,---,0.00,VWS V14.01,2013-05-10 02:14:00,
2013-05-09 22:19:00,66.8,64.1,30.07,WSW,254,5.0,7.0,91,0.00,,---,0.00,VWS V14.01,2013-05-10 02:19:00,
2013-05-09 22:24:00,66.8,64.1,30.07,WSW,254,5.0,7.0,91,0.00,,---,0.00,VWS V14.01,2013-05-10 02:24:00,
2013-05-09 22:29:00,66.7,64.0,30.07,WSW,254,6.0,7.0,91,0.00,,---,0.00,VWS V14.01,2013-05-10 02:29:00,
2013-05-09 22:34:00,66.7,64.0,30.07,WSW,254,6.0,7.0,91,0.00,,---,0.00,VWS V14.01,2013-05-10 02:34:00,
2013-05-09 22:39:00,66.6,63.9,30.08,WSW,254,6.0,7.0,91,0.00,,---,0.00,VWS V14.01,2013-05-10 02:39:00,
2013-05-09 22:44:00,66.6,63.9,30.08,WSW,254,4.0,7.0,91,0.00,,---,0.00,VWS V14.01,2013-05-10 02:44:00,
2013-05-09 22:49:00,66.7,64.0,30.08,WSW,254,6.0,6.0,91,0.00,,---,0.00,VWS V14.01,2013-05-10 02:49:00,
2013-05-09 22:54:00,66.6,63.9,30.07,WSW,254,5.0,6.0,91,0.00,,---,0.00,VWS V14.01,2013-05-10 02:54:00,
2013-05-09 22:59:00,66.7,64.0,30.07,WSW,254,5.0,6.0,91,0.00,,---,0.00,VWS V14.01,2013-05-10 02:59:00,
2013-05-09 23:04:00,66.6,63.9,30.07,WSW,254,6.0,6.0,91,0.00,,---,0.00,VWS V14.01,2013-05-10 03:04:00,
2013-05-09 23:09:00,66.7,64.0,30.07,WSW,254,5.0,5.0,91,0.00,,---,0.00,VWS V14.01,2013-05-10 03:09:00,
2013-05-09 23:14:00,66.6,63.9,30.07,WSW,254,4.0,5.0,91,0.00,,---,0.00,VWS V14.01,2013-05-10 03:14:00,
2013-05-09 23:19:00,66.6,63.9,30.07,WSW,254,3.0,4.0,91,0.00,,---,0.00,VWS V14.01,2013-05-10 03:19:00,
2013-05-09 23:24:00,66.5,63.8,30.07,WSW,254,3.0,4.0,91,0.00,,---,0.00,VWS V14.01,2013-05-10 03:24:00,
2013-05-09 23:29:00,66.5,63.8,30.07,WSW,254,2.0,4.0,91,0.00,,---,0.00,VWS V14.01,2013-05-10 03:29:00,
2013-05-09 23:34:00,66.5,63.8,30.07,WSW,254,4.0,4.0,91,0.00,,---,0.00,VWS V14.01,2013-05-10 03:34:00,
2013-05-09 23:39:00,66.5,63.8,30.07,WSW,254,4.0,5.0,91,0.00,,---,0.00,VWS V14.01,2013-05-10 03:39:00,
2013-05-09 23:44:00,66.4,63.7,30.07,WSW,254,4.0,5.0,91,0.00,,---,0.00,VWS V14.01,2013-05-10 03:44:00,
2013-05-09 23:49:00,66.5,63.8,30.07,WSW,254,4.0,5.0,91,0.00,,---,0.00,VWS V14.01,2013-05-10 03:49:00,
2013-05-09 23:54:00,66.5,63.8,30.08,WSW,254,5.0,6.0,91,0.00,,---,0.00,VWS V14.01,2013-05-10 03:54:00,
2013-05-09 23:59:00,66.5,63.8,30.08,WSW,254,5.0,6.0,91,0.00,,---,0.00,VWS V14.01,2013-05-10 03:59:00,